Time,TemperatureF,DewpointF,PressureIn,WindDirection,WindDirectionDegrees,WindSpeedMPH,WindSpeedGustMPH,Humidity,HourlyPrecipIn,Conditions,Clouds,dailyrainin,SoftwareType,DateUTC
2013-03-22 00:05:00,49.3,8.7,29.74,NW,310,3.0,7.0,19,0.00,,,0.00,Wunderground v.1.15,2013-03-22 06:05:00,
2013-03-22 00:15:00,48.5,6.8,29.74,NW,309,3.0,7.0,18,0.00,,,0.00,Wunderground v.1.15,2013-03-22 06:15:00,
2013-03-22 00:25:00,48.3,6.7,29.74,NW,307,4.0,7.0,18,0.00,,,0.00,Wunderground v.1.15,2013-03-22 06:25:00,
2013-03-22 00:34:00,48.2,5.3,29.74,NW,306,5.0,6.0,17,0.00,,,0.00,Wunderground v.1.15,2013-03-22 06:34:00,
2013-03-22 00:39:00,48.2,5.3,29.74,NW,309,5.0,7.0,17,0.00,,,0.00,Wunderground v.1.15,2013-03-22 06:39:00,
2013-03-22 00:49:00,47.9,5.1,29.74,NW,309,6.0,6.0,17,0.00,,,0.00,Wunderground v.1.15,2013-03-22 06:49:00,
2013-03-22 00:55:00,47.7,4.9,29.74,NW,307,6.0,8.0,17,0.00,,,0.00,Wunderground v.1.15,2013-03-22 06:55:00,
2013-03-22 01:05:00,48.4,5.5,29.74,NW,305,5.0,6.0,17,0.00,,,0.00,Wunderground v.1.15,2013-03-22 07:05:00,
2013-03-22 01:10:00,48.7,5.8,29.74,NW,305,5.0,8.0,17,0.00,,,0.00,Wunderground v.1.15,2013-03-22 07:10:00,
2013-03-22 01:20:00,48.6,5.7,29.74,NW,304,7.0,7.0,17,0.00,,,0.00,Wunderground v.1.15,2013-03-22 07:20:00,
2013-03-22 01:24:00,48.2,5.3,29.74,WNW,303,7.0,7.0,17,0.00,,,0.00,Wunderground v.1.15,2013-03-22 07:24:00,
2013-03-22 01:35:00,47.6,6.1,29.75,NW,304,5.0,11.0,18,0.00,,,0.00,Wunderground v.1.15,2013-03-22 07:35:00,
2013-03-22 01:40:00,47.3,5.9,29.76,NW,304,3.0,3.0,18,0.00,,,0.00,Wunderground v.1.15,2013-03-22 07:40:00,
2013-03-22 01:50:00,45.8,5.8,29.76,NW,304,1.0,1.0,19,0.00,,,0.00,Wunderground v.1.15,2013-03-22 07:50:00,
2013-03-22 02:00:00,45.6,5.6,29.76,NW,304,2.0,11.0,19,0.00,,,0.00,Wunderground v.1.15,2013-03-22 08:00:00,
2013-03-22 02:09:00,45.1,5.2,29.76,NW,304,3.0,11.0,19,0.00,,,0.00,Wunderground v.1.15,2013-03-22 08:09:00,
2013-03-22 02:14:00,45.1,6.3,29.76,NW,304,4.0,11.0,20,0.00,,,0.00,Wunderground v.1.15,2013-03-22 08:14:00,
2013-03-22 02:20:00,45.4,6.6,29.75,NW,304,3.0,3.0,20,0.00,,,0.00,Wunderground v.1.15,2013-03-22 08:20:00,
2013-03-22 02:25:00,45.6,6.8,29.75,NW,305,3.0,4.0,20,0.00,,,0.00,Wunderground v.1.15,2013-03-22 08:25:00,
2013-03-22 02:30:00,45.5,6.7,29.75,NW,305,3.0,3.0,20,0.00,,,0.00,Wunderground v.1.15,2013-03-22 08:30:00,
2013-03-22 02:40:00,44.7,6.0,29.76,NW,305,2.0,2.0,20,0.00,,,0.00,Wunderground v.1.15,2013-03-22 08:40:00,
2013-03-22 02:49:00,43.8,6.3,29.76,NW,305,1.0,6.0,21,0.00,,,0.00,Wunderground v.1.15,2013-03-22 08:49:00,
2013-03-22 02:59:00,44.5,5.8,29.76,NW,305,2.0,6.0,20,0.00,,,0.00,Wunderground v.1.15,2013-03-22 08:59:00,
2013-03-22 03:05:00,45.2,6.4,29.76,NW,305,3.0,6.0,20,0.00,,,0.00,Wunderground v.1.15,2013-03-22 09:05:00,
2013-03-22 03:15:00,45.6,5.6,29.75,NW,305,3.0,6.0,19,0.00,,,0.00,Wunderground v.1.15,2013-03-22 09:15:00,
2013-03-22 03:20:00,45.3,6.5,29.75,NW,304,3.0,6.0,20,0.00,,,0.00,Wunderground v.1.15,2013-03-22 09:20:00,
2013-03-22 03:25:00,45.0,6.3,29.75,NW,304,2.0,6.0,20,0.00,,,0.00,Wunderground v.1.15,2013-03-22 09:25:00,
2013-03-22 03:35:00,44.4,5.8,29.75,NW,304,1.0,6.0,20,0.00,,,0.00,Wunderground v.1.15,2013-03-22 09:35:00,
2013-03-22 03:44:00,44.4,5.8,29.75,NW,304,2.0,6.0,20,0.00,,,0.00,Wunderground v.1.15,2013-03-22 09:44:00,
2013-03-22 03:55:00,42.9,5.6,29.75,NW,304,0.0,6.0,21,0.00,,,0.00,Wunderground v.1.15,2013-03-22 09:55:00,
2013-03-22 04:05:00,42.3,7.1,29.75,NW,304,0.0,6.0,23,0.00,,,0.00,Wunderground v.1.15,2013-03-22 10:05:00,
2013-03-22 04:15:00,41.7,6.6,29.76,NW,304,0.0,6.0,23,0.00,,,0.00,Wunderground v.1.15,2013-03-22 10:15:00,
2013-03-22 04:24:00,41.6,6.5,29.76,NW,304,0.0,6.0,23,0.00,,,0.00,Wunderground v.1.15,2013-03-22 10:24:00,
2013-03-22 04:35:00,41.0,6.9,29.76,NW,304,0.0,3.0,24,0.00,,,0.00,Wunderground v.1.15,2013-03-22 10:35:00,
2013-03-22 04:40:00,40.6,7.5,29.76,NW,304,0.0,3.0,25,0.00,,,0.00,Wunderground v.1.15,2013-03-22 10:40:00,
2013-03-22 04:45:00,40.5,7.4,29.76,NW,304,0.0,3.0,25,0.00,,,0.00,Wunderground v.1.15,2013-03-22 10:45:00,
2013-03-22 04:55:00,40.7,6.6,29.76,NW,304,0.0,3.0,24,0.00,,,0.00,Wunderground v.1.15,2013-03-22 10:55:00,
2013-03-22 05:05:00,40.2,7.1,29.76,NW,304,0.0,3.0,25,0.00,,,0.00,Wunderground v.1.15,2013-03-22 11:05:00,
2013-03-22 05:14:00,40.4,7.3,29.77,NW,304,0.0,3.0,25,0.00,,,0.00,Wunderground v.1.15,2013-03-22 11:14:00,
2013-03-22 05:25:00,40.5,7.4,29.77,NW,304,0.0,3.0,25,0.00,,,0.00,Wunderground v.1.15,2013-03-22 11:25:00,
2013-03-22 05:35:00,40.5,7.4,29.77,NW,304,0.0,1.0,25,0.00,,,0.00,Wunderground v.1.15,2013-03-22 11:35:00,
2013-03-22 05:45:00,40.3,7.2,29.78,NW,304,0.0,1.0,25,0.00,,,0.00,Wunderground v.1.15,2013-03-22 11:45:00,
2013-03-22 05:54:00,40.0,6.9,29.78,NW,304,0.0,1.0,25,0.00,,,0.00,Wunderground v.1.15,2013-03-22 11:54:00,
2013-03-22 06:05:00,39.8,6.8,29.79,NW,304,1.0,1.0,25,0.00,,,0.00,Wunderground v.1.15,2013-03-22 12:05:00,
2013-03-22 06:15:00,39.9,6.9,29.80,NW,304,1.0,1.0,25,0.00,,,0.00,Wunderground v.1.15,2013-03-22 12:15:00,
2013-03-22 06:25:00,39.4,7.3,29.80,NW,304,0.0,1.0,26,0.00,,,0.00,Wunderground v.1.15,2013-03-22 12:25:00,
2013-03-22 06:34:00,39.0,7.0,29.81,NW,304,1.0,3.0,26,0.00,,,0.00,Wunderground v.1.15,2013-03-22 12:34:00,
2013-03-22 06:45:00,38.7,6.7,29.81,NW,304,1.0,3.0,26,0.00,,,0.00,Wunderground v.1.15,2013-03-22 12:45:00,
2013-03-22 06:55:00,38.7,6.7,29.82,NW,304,0.0,3.0,26,0.00,,,0.00,Wunderground v.1.15,2013-03-22 12:55:00,
2013-03-22 07:05:00,37.8,7.6,29.82,NW,304,0.0,3.0,28,0.00,,,0.00,Wunderground v.1.15,2013-03-22 13:05:00,
2013-03-22 07:14:00,37.6,6.6,29.82,NW,304,0.0,3.0,27,0.00,,,0.00,Wunderground v.1.15,2013-03-22 13:14:00,
2013-03-22 07:25:00,37.5,7.3,29.83,NW,304,0.0,3.0,28,0.00,,,0.00,Wunderground v.1.15,2013-03-22 13:25:00,
2013-03-22 07:30:00,37.5,7.3,29.83,NW,304,0.0,0.0,28,0.00,,,0.00,Wunderground v.1.15,2013-03-22 13:30:00,
2013-03-22 07:39:00,38.2,7.9,29.83,NW,304,1.0,2.0,28,0.00,,,0.00,Wunderground v.1.15,2013-03-22 13:39:00,
2013-03-22 07:45:00,38.8,9.2,29.83,NW,304,1.0,2.0,29,0.00,,,0.00,Wunderground v.1.15,2013-03-22 13:45:00,
2013-03-22 07:50:00,39.4,8.1,29.83,NW,304,1.0,3.0,27,0.00,,,0.00,Wunderground v.1.15,2013-03-22 13:50:00,
2013-03-22 08:00:00,40.6,8.3,29.84,NW,305,2.0,3.0,26,0.00,,,0.00,Wunderground v.1.15,2013-03-22 14:00:00,
2013-03-22 08:10:00,42.0,7.8,29.84,NW,305,2.0,3.0,24,0.00,,,0.00,Wunderground v.1.15,2013-03-22 14:10:00,
2013-03-22 08:19:00,43.4,8.0,29.84,NW,305,3.0,3.0,23,0.00,,,0.00,Wunderground v.1.15,2013-03-22 14:19:00,
2013-03-22 08:24:00,44.0,8.5,29.84,NW,305,3.0,3.0,23,0.00,,,0.00,Wunderground v.1.15,2013-03-22 14:24:00,
2013-03-22 08:35:00,45.2,8.5,29.84,NW,305,3.0,6.0,22,0.00,,,0.00,Wunderground v.1.15,2013-03-22 14:35:00,
2013-03-22 08:45:00,46.5,8.6,29.83,NW,305,2.0,6.0,21,0.00,,,0.00,Wunderground v.1.15,2013-03-22 14:45:00,
2013-03-22 08:55:00,48.2,8.9,29.83,NW,305,1.0,6.0,20,0.00,,,0.00,Wunderground v.1.15,2013-03-22 14:55:00,
2013-03-22 09:04:00,49.6,10.1,29.84,NW,305,1.0,6.0,20,0.00,,,0.00,Wunderground v.1.15,2013-03-22 15:04:00,
2013-03-22 09:15:00,50.0,10.4,29.84,NW,305,1.0,6.0,20,0.00,,,0.00,Wunderground v.1.15,2013-03-22 15:15:00,
2013-03-22 09:25:00,50.8,9.9,29.84,NW,305,1.0,6.0,19,0.00,,,0.00,Wunderground v.1.15,2013-03-22 15:25:00,
2013-03-22 09:35:00,51.3,7.9,29.84,NNW,329,1.0,3.0,17,0.00,,,0.00,Wunderground v.1.15,2013-03-22 15:35:00,
2013-03-22 09:44:00,51.8,6.9,29.84,NNW,331,2.0,4.0,16,0.00,,,0.00,Wunderground v.1.15,2013-03-22 15:44:00,
2013-03-22 09:50:00,51.7,6.9,29.84,NNW,331,1.0,1.0,16,0.00,,,0.00,Wunderground v.1.15,2013-03-22 15:50:00,
2013-03-22 10:00:00,52.3,7.4,29.84,NNW,331,1.0,4.0,16,0.00,,,0.00,Wunderground v.1.15,2013-03-22 16:00:00,
2013-03-22 10:10:00,52.8,7.8,29.84,NNW,330,1.0,4.0,16,0.00,,,0.00,Wunderground v.1.15,2013-03-22 16:10:00,
2013-03-22 10:19:00,54.1,8.8,29.83,NNW,331,1.0,4.0,16,0.00,,,0.00,Wunderground v.1.15,2013-03-22 16:19:00,
2013-03-22 10:24:00,54.2,7.5,29.83,NNW,331,2.0,4.0,15,0.00,,,0.00,Wunderground v.1.15,2013-03-22 16:24:00,
2013-03-22 10:35:00,54.2,7.5,29.83,North,5,2.0,2.0,15,0.00,,,0.00,Wunderground v.1.15,2013-03-22 16:35:00,
2013-03-22 10:45:00,54.6,7.8,29.82,North,11,1.0,5.0,15,0.00,,,0.00,Wunderground v.1.15,2013-03-22 16:45:00,
2013-03-22 10:50:00,54.9,8.0,29.82,NNE,33,2.0,6.0,15,0.00,,,0.00,Wunderground v.1.15,2013-03-22 16:50:00,
2013-03-22 10:59:00,55.5,7.0,29.82,NE,34,2.0,2.0,14,0.00,,,0.00,Wunderground v.1.15,2013-03-22 16:59:00,
2013-03-22 11:09:00,56.6,6.2,29.81,ESE,117,3.0,3.0,13,0.00,,,0.00,Wunderground v.1.15,2013-03-22 17:09:00,
2013-03-22 11:20:00,57.8,7.2,29.81,ESE,120,2.0,2.0,13,0.00,,,0.00,Wunderground v.1.15,2013-03-22 17:20:00,
2013-03-22 11:25:00,57.7,7.1,29.81,SE,130,2.0,3.0,13,0.00,,,0.00,Wunderground v.1.15,2013-03-22 17:25:00,
2013-03-22 11:35:00,58.0,7.3,29.80,SE,136,3.0,10.0,13,0.00,,,0.00,Wunderground v.1.15,2013-03-22 17:35:00,
2013-03-22 11:45:00,58.5,6.0,29.80,SE,140,2.0,10.0,12,0.00,,,0.00,Wunderground v.1.15,2013-03-22 17:45:00,
2013-03-22 11:54:00,59.2,6.5,29.80,SE,141,2.0,10.0,12,0.00,,,0.00,Wunderground v.1.15,2013-03-22 17:54:00,
2013-03-22 12:04:00,59.2,6.5,29.79,SE,138,4.0,10.0,12,0.00,,,0.00,Wunderground v.1.15,2013-03-22 18:04:00,
2013-03-22 12:10:00,59.3,6.6,29.79,SE,142,4.0,4.0,12,0.00,,,0.00,Wunderground v.1.15,2013-03-22 18:10:00,
2013-03-22 12:20:00,59.7,6.9,29.78,SSE,161,4.0,10.0,12,0.00,,,0.00,Wunderground v.1.15,2013-03-22 18:20:00,
2013-03-22 12:25:00,60.0,7.2,29.78,SW,222,4.0,10.0,12,0.00,,,0.00,Wunderground v.1.15,2013-03-22 18:25:00,
2013-03-22 12:35:00,60.7,7.7,29.77,South,174,3.0,12.0,12,0.00,,,0.00,Wunderground v.1.15,2013-03-22 18:35:00,
2013-03-22 12:44:00,61.0,7.9,29.76,South,182,3.0,12.0,12,0.00,,,0.00,Wunderground v.1.15,2013-03-22 18:44:00,
2013-03-22 12:50:00,61.1,8.0,29.76,SE,141,5.0,12.0,12,0.00,,,0.00,Wunderground v.1.15,2013-03-22 18:50:00,
2013-03-22 13:00:00,61.6,8.4,29.75,SSW,208,4.0,12.0,12,0.00,,,0.00,Wunderground v.1.15,2013-03-22 19:00:00,
2013-03-22 13:10:00,61.7,8.5,29.73,SSE,156,4.0,4.0,12,0.00,,,0.00,Wunderground v.1.15,2013-03-22 19:10:00,
2013-03-22 13:20:00,62.0,8.7,29.73,SSE,148,3.0,3.0,12,0.00,,,0.00,Wunderground v.1.15,2013-03-22 19:20:00,
2013-03-22 13:24:00,61.7,8.5,29.73,SE,144,1.0,3.0,12,0.00,,,0.00,Wunderground v.1.15,2013-03-22 19:24:00,
2013-03-22 13:34:00,60.9,7.9,29.73,SE,133,3.0,3.0,12,0.00,,,0.00,Wunderground v.1.15,2013-03-22 19:34:00,
2013-03-22 13:40:00,60.9,7.9,29.72,NE,44,3.0,17.0,12,0.00,,,0.00,Wunderground v.1.15,2013-03-22 19:40:00,
2013-03-22 13:45:00,60.9,7.9,29.71,East,87,4.0,17.0,12,0.00,,,0.00,Wunderground v.1.15,2013-03-22 19:45:00,
2013-03-22 13:55:00,61.0,7.9,29.71,NNE,17,4.0,17.0,12,0.00,,,0.00,Wunderground v.1.15,2013-03-22 19:55:00,
2013-03-22 14:05:00,61.2,9.9,29.71,NNE,24,3.0,17.0,13,0.00,,,0.00,Wunderground v.1.15,2013-03-22 20:05:00,
2013-03-22 14:10:00,61.1,9.8,29.70,NNE,25,4.0,4.0,13,0.00,,,0.00,Wunderground v.1.15,2013-03-22 20:10:00,
2013-03-22 14:20:00,61.1,9.8,29.70,NNE,26,1.0,17.0,13,0.00,,,0.00,Wunderground v.1.15,2013-03-22 20:20:00,
2013-03-22 14:29:00,60.9,9.6,29.70,NE,34,3.0,3.0,13,0.00,,,0.00,Wunderground v.1.15,2013-03-22 20:29:00,
2013-03-22 14:35:00,60.8,7.8,29.70,NE,39,3.0,10.0,12,0.00,,,0.00,Wunderground v.1.15,2013-03-22 20:35:00,
2013-03-22 14:40:00,60.8,9.6,29.69,NE,39,2.0,2.0,13,0.00,,,0.00,Wunderground v.1.15,2013-03-22 20:40:00,
2013-03-22 14:50:00,61.2,9.9,29.69,NE,36,2.0,10.0,13,0.00,,,0.00,Wunderground v.1.15,2013-03-22 20:50:00,
2013-03-22 14:59:00,61.7,8.5,29.69,NE,36,1.0,10.0,12,0.00,,,0.00,Wunderground v.1.15,2013-03-22 20:59:00,
2013-03-22 15:04:00,62.0,8.7,29.69,NE,36,1.0,10.0,12,0.00,,,0.00,Wunderground v.1.15,2013-03-22 21:04:00,
2013-03-22 15:14:00,62.6,9.2,29.68,NNW,336,2.0,10.0,12,0.00,,,0.00,Wunderground v.1.15,2013-03-22 21:14:00,
2013-03-22 15:19:00,62.8,11.1,29.68,West,264,4.0,10.0,13,0.00,,,0.00,Wunderground v.1.15,2013-03-22 21:19:00,
2013-03-22 15:25:00,62.7,11.1,29.67,West,265,5.0,10.0,13,0.00,,,0.00,Wunderground v.1.15,2013-03-22 21:25:00,
2013-03-22 15:30:00,62.8,11.1,29.67,SW,232,4.0,5.0,13,0.00,,,0.00,Wunderground v.1.15,2013-03-22 21:30:00,
2013-03-22 15:40:00,63.4,11.6,29.68,WSW,255,4.0,8.0,13,0.00,,,0.00,Wunderground v.1.15,2013-03-22 21:40:00,
2013-03-22 15:45:00,63.7,10.1,29.67,NW,306,5.0,8.0,12,0.00,,,0.00,Wunderground v.1.15,2013-03-22 21:45:00,
2013-03-22 15:50:00,63.6,10.0,29.67,NNW,330,4.0,6.0,12,0.00,,,0.00,Wunderground v.1.15,2013-03-22 21:50:00,
2013-03-22 15:59:00,64.7,10.8,29.66,WSW,250,7.0,11.0,12,0.00,,,0.00,Wunderground v.1.15,2013-03-22 21:59:00,
2013-03-22 16:04:00,66.3,12.1,29.66,West,259,10.0,11.0,12,0.00,,,0.00,Wunderground v.1.15,2013-03-22 22:04:00,
2013-03-22 16:09:00,66.2,13.8,29.66,WSW,247,12.0,20.0,13,0.00,,,0.00,Wunderground v.1.15,2013-03-22 22:09:00,
2013-03-22 16:20:00,67.0,12.6,29.66,WSW,256,11.0,14.0,12,0.00,,,0.00,Wunderground v.1.15,2013-03-22 22:20:00,
2013-03-22 16:30:00,66.8,14.3,29.65,WSW,251,14.0,14.0,13,0.00,,,0.00,Wunderground v.1.15,2013-03-22 22:30:00,
2013-03-22 16:40:00,67.0,12.6,29.64,SW,232,11.0,25.0,12,0.00,,,0.00,Wunderground v.1.15,2013-03-22 22:40:00,
2013-03-22 16:50:00,66.3,13.9,29.64,WSW,248,12.0,12.0,13,0.00,,,0.00,Wunderground v.1.15,2013-03-22 22:50:00,
2013-03-22 16:59:00,65.9,13.6,29.64,WSW,252,9.0,25.0,13,0.00,,,0.00,Wunderground v.1.15,2013-03-22 22:59:00,
2013-03-22 17:10:00,66.0,13.7,29.64,WNW,294,11.0,25.0,13,0.00,,,0.00,Wunderground v.1.15,2013-03-22 23:10:00,
2013-03-22 17:20:00,66.5,12.3,29.64,WNW,298,10.0,25.0,12,0.00,,,0.00,Wunderground v.1.15,2013-03-22 23:20:00,
2013-03-22 17:25:00,66.6,10.4,29.63,SW,229,11.0,25.0,11,0.00,,,0.00,Wunderground v.1.15,2013-03-22 23:25:00,
2013-03-22 17:35:00,66.9,8.5,29.64,West,262,11.0,13.0,10,0.00,,,0.00,Wunderground v.1.15,2013-03-22 23:35:00,
2013-03-22 17:40:00,66.9,3.6,29.64,NW,311,11.0,11.0,8,0.00,,,0.00,Wunderground v.1.15,2013-03-22 23:40:00,
2013-03-22 17:50:00,66.9,3.6,29.64,WNW,290,13.0,13.0,8,0.00,,,0.00,Wunderground v.1.15,2013-03-22 23:50:00,
2013-03-22 18:00:00,66.5,3.3,29.64,West,259,14.0,21.0,8,0.00,,,0.00,Wunderground v.1.15,2013-03-23 00:00:00,
2013-03-22 18:10:00,66.0,5.5,29.64,West,275,13.0,21.0,9,0.00,,,0.00,Wunderground v.1.15,2013-03-23 00:10:00,
2013-03-22 18:20:00,65.0,7.0,29.65,West,273,12.0,21.0,10,0.00,,,0.00,Wunderground v.1.15,2013-03-23 00:20:00,
2013-03-22 18:25:00,64.6,6.7,29.65,West,281,11.0,21.0,10,0.00,,,0.00,Wunderground v.1.15,2013-03-23 00:25:00,
2013-03-22 18:34:00,64.7,6.8,29.65,WSW,254,10.0,16.0,10,0.00,,,0.00,Wunderground v.1.15,2013-03-23 00:34:00,
2013-03-22 18:39:00,64.8,6.9,29.65,West,275,10.0,10.0,10,0.00,,,0.00,Wunderground v.1.15,2013-03-23 00:39:00,
2013-03-22 18:50:00,64.5,6.6,29.66,WNW,284,9.0,26.0,10,0.00,,,0.00,Wunderground v.1.15,2013-03-23 00:50:00,
2013-03-22 19:00:00,64.0,10.3,29.66,West,267,10.0,26.0,12,0.00,,,0.00,Wunderground v.1.15,2013-03-23 01:00:00,
2013-03-22 19:10:00,63.0,14.6,29.67,West,273,13.0,13.0,15,0.00,,,0.00,Wunderground v.1.15,2013-03-23 01:10:00,
2013-03-22 19:20:00,62.5,14.2,29.67,WNW,286,13.0,13.0,15,0.00,,,0.00,Wunderground v.1.15,2013-03-23 01:20:00,
2013-03-22 19:24:00,62.2,15.4,29.68,West,267,12.0,13.0,16,0.00,,,0.00,Wunderground v.1.15,2013-03-23 01:24:00,
2013-03-22 19:35:00,61.7,17.7,29.69,WSW,253,10.0,26.0,18,0.00,,,0.00,Wunderground v.1.15,2013-03-23 01:35:00,
2013-03-22 19:45:00,61.1,18.5,29.69,WSW,253,11.0,26.0,19,0.00,,,0.00,Wunderground v.1.15,2013-03-23 01:45:00,
2013-03-22 19:55:00,59.2,23.4,29.70,WSW,240,13.0,13.0,25,0.00,,,0.00,Wunderground v.1.15,2013-03-23 01:55:00,
2013-03-22 20:00:00,58.6,24.7,29.70,WSW,238,16.0,26.0,27,0.00,,,0.00,Wunderground v.1.15,2013-03-23 02:00:00,
2013-03-22 20:09:00,58.0,25.0,29.70,SW,226,14.0,14.0,28,0.00,,,0.00,Wunderground v.1.15,2013-03-23 02:09:00,
2013-03-22 20:15:00,57.8,25.7,29.70,WSW,238,13.0,15.0,29,0.00,,,0.00,Wunderground v.1.15,2013-03-23 02:15:00,
2013-03-22 20:25:00,57.3,26.1,29.71,SSW,212,15.0,26.0,30,0.00,,,0.00,Wunderground v.1.15,2013-03-23 02:25:00,
2013-03-22 20:35:00,56.7,27.1,29.71,SW,232,12.0,17.0,32,0.00,,,0.00,Wunderground v.1.15,2013-03-23 02:35:00,
2013-03-22 20:45:00,56.2,27.4,29.71,SW,234,11.0,31.0,33,0.00,,,0.00,Wunderground v.1.15,2013-03-23 02:45:00,
2013-03-22 20:54:00,55.8,27.1,29.71,WSW,242,9.0,11.0,33,0.00,,,0.00,Wunderground v.1.15,2013-03-23 02:54:00,
2013-03-22 21:04:00,55.5,26.8,29.72,SW,236,10.0,31.0,33,0.00,,,0.00,Wunderground v.1.15,2013-03-23 03:04:00,
2013-03-22 21:10:00,55.5,26.8,29.72,WSW,249,10.0,10.0,33,0.00,,,0.00,Wunderground v.1.15,2013-03-23 03:10:00,
2013-03-22 21:19:00,55.3,26.7,29.73,WSW,252,9.0,31.0,33,0.00,,,0.00,Wunderground v.1.15,2013-03-23 03:19:00,
2013-03-22 21:24:00,55.0,26.4,29.73,WSW,242,9.0,31.0,33,0.00,,,0.00,Wunderground v.1.15,2013-03-23 03:24:00,
2013-03-22 21:30:00,55.0,26.4,29.73,WSW,250,9.0,13.0,33,0.00,,,0.00,Wunderground v.1.15,2013-03-23 03:30:00,
2013-03-22 21:39:00,55.0,27.1,29.74,WSW,238,10.0,22.0,34,0.00,,,0.00,Wunderground v.1.15,2013-03-23 03:39:00,
2013-03-22 21:45:00,54.9,27.0,29.74,SW,219,10.0,22.0,34,0.00,,,0.00,Wunderground v.1.15,2013-03-23 03:45:00,
2013-03-22 21:50:00,54.9,27.7,29.74,SW,227,11.0,11.0,35,0.00,,,0.00,Wunderground v.1.15,2013-03-23 03:50:00,
2013-03-22 21:59:00,54.5,27.4,29.74,SW,219,9.0,9.0,35,0.00,,,0.00,Wunderground v.1.15,2013-03-23 03:59:00,
2013-03-22 22:05:00,54.3,27.9,29.74,SW,227,9.0,13.0,36,0.00,,,0.00,Wunderground v.1.15,2013-03-23 04:05:00,
2013-03-22 22:15:00,54.1,27.7,29.73,SW,235,10.0,22.0,36,0.00,,,0.00,Wunderground v.1.15,2013-03-23 04:15:00,
2013-03-22 22:20:00,54.1,27.0,29.74,WSW,238,10.0,22.0,35,0.00,,,0.00,Wunderground v.1.15,2013-03-23 04:20:00,
2013-03-22 22:25:00,54.0,26.9,29.74,WSW,248,10.0,22.0,35,0.00,,,0.00,Wunderground v.1.15,2013-03-23 04:25:00,
2013-03-22 22:35:00,53.6,27.3,29.74,SW,234,9.0,22.0,36,0.00,,,0.00,Wunderground v.1.15,2013-03-23 04:35:00,
2013-03-22 22:44:00,53.5,26.5,29.74,WSW,252,10.0,22.0,35,0.00,,,0.00,Wunderground v.1.15,2013-03-23 04:44:00,
2013-03-22 22:55:00,53.6,26.6,29.74,WSW,247,10.0,22.0,35,0.00,,,0.00,Wunderground v.1.15,2013-03-23 04:55:00,
2013-03-22 23:00:00,53.7,26.0,29.74,SW,234,9.0,22.0,34,0.00,,,0.00,Wunderground v.1.15,2013-03-23 05:00:00,
2013-03-22 23:10:00,53.7,26.7,29.75,SW,225,11.0,11.0,35,0.00,,,0.00,Wunderground v.1.15,2013-03-23 05:10:00,
2013-03-22 23:20:00,53.3,26.3,29.75,WSW,248,9.0,9.0,35,0.00,,,0.00,Wunderground v.1.15,2013-03-23 05:20:00,
2013-03-22 23:25:00,53.1,26.8,29.75,WSW,252,8.0,9.0,36,0.00,,,0.00,Wunderground v.1.15,2013-03-23 05:25:00,
2013-03-22 23:35:00,52.7,27.1,29.75,WSW,240,8.0,13.0,37,0.00,,,0.00,Wunderground v.1.15,2013-03-23 05:35:00,
2013-03-22 23:45:00,52.6,27.0,29.75,WSW,249,10.0,11.0,37,0.00,,,0.00,Wunderground v.1.15,2013-03-23 05:45:00,
2013-03-22 23:54:00,52.4,26.9,29.75,West,263,9.0,22.0,37,0.00,,,0.00,Wunderground v.1.15,2013-03-23 05:54:00,